Zurück zum Katalog

STARLINK-11115

AktivKommunikationVLEO
NORAD 60305·PAYLOAD·🇺🇸 United States

Gestartet Jul 28, 2024 von Vandenberg Space Force Base

Loading…

Nächste Überflüge (nächste 24 Stunden)

TLE

AktuellSource: CelesTrak SupGP

Epoche: Sep 15, 2026, 02:20 UTC

1 60305C 24133E   26258.09770833  .00053992  00000+0  44451-3 0  2583
2 60305  53.1576 292.4971 0001171  93.9715 240.6443 15.69695202    10

Verfolge STARLINK-11115 in Echtzeit mit AllMySat

Download on the App Store